Date String (YYYY-MM-DD hh:mm:ss) UTC,Instrument flags,Ambient pressure (hPa),Sample flow (lpm),Bypass flow (lpm),Sample temperature (°C),Ambient temperature (°C),ASC tube jacket temperature (°C),LED temperature (°C),Box temperature (°C),Sample RH (%),Span deviation,Mass concentration (μg/m³),Mass concentration (μg/m³),Mass concentration (μg/m³)
DateTimeUTC,F1_M11,P_M11,Q1_M11,Q2_M11,T1_M11,T2_M11,T3_M11,T4_M11,T5_M11,U1_M11,ZSPAN_M11,X0_M11,X2_M11,X1_M11
2023-01-02 01:00:00,,0819.3,5.00,0.00,23.2,21.8,00.0,32.2,25.0,18.1,-001.8,0019.77,0014.92,0014.56
2023-01-02 01:01:00,,0819.3,5.00,0.00,23.2,21.8,00.0,32.2,25.0,18.2,-001.7,0019.57,0014.89,0014.53
2023-01-02 01:02:00,,0819.2,4.98,0.00,23.2,21.8,00.0,32.2,25.0,18.2,-001.7,0019.04,0014.83,0014.49
2023-01-02 01:03:00,,0819.3,5.00,0.00,23.2,21.8,00.0,32.1,25.0,18.2,-001.9,0019.01,0014.80,0014.46
2023-01-02 01:04:00,,0819.3,5.01,0.00,23.2,21.7,00.0,32.1,25.0,18.3,-001.9,0018.99,0014.78,0014.44
2023-01-02 01:05:00,,0819.2,5.01,0.00,23.2,21.6,00.0,32.1,24.9,18.3,-002.0,0018.92,0014.74,0014.41
2023-01-02 01:06:00,,0819.3,5.00,0.00,23.1,21.5,00.0,32.1,24.9,18.3,-002.1,0018.95,0014.72,0014.40
2023-01-02 01:07:00,,0819.3,5.00,0.00,23.1,21.5,00.0,32.1,24.9,18.3,-002.3,0018.90,0014.70,0014.39
2023-01-02 01:08:00,,0819.3,5.00,0.00,23.1,21.5,00.0,32.1,24.8,18.4,-002.3,0018.58,0014.75,0014.44
2023-01-02 01:09:00,,0819.2,5.00,0.00,23.1,21.4,00.0,32.1,24.8,18.6,-002.3,0018.30,0014.77,0014.47
2023-01-02 01:10:00,,0819.2,5.00,0.00,23.1,21.4,00.0,32.0,24.8,18.6,-002.2,0018.34,0014.80,0014.50
2023-01-02 01:11:00,,0819.3,5.00,0.00,23.0,21.4,00.0,32.0,24.8,18.5,-002.0,0018.59,0014.92,0014.60
2023-01-02 01:12:00,,0819.3,5.00,0.00,23.0,21.4,00.0,32.0,24.8,18.5,-001.8,0019.30,0015.04,0014.71
2023-01-02 01:13:00,,0819.3,5.00,0.00,23.0,21.3,00.0,32.0,24.7,18.5,-001.6,0019.66,0015.17,0014.83
2023-01-02 01:14:00,,0819.3,5.01,0.00,23.0,21.3,00.0,32.0,24.7,18.5,-001.4,0019.80,0015.30,0014.97
2023-01-02 01:15:00,,0819.4,5.00,0.00,23.0,21.3,00.0,32.0,24.7,18.5,-001.2,0019.96,0015.42,0015.09
2023-01-02 01:16:00,,0819.4,4.99,0.00,22.9,21.2,00.0,32.0,24.7,18.5,-001.1,0020.10,0015.48,0015.14
2023-01-02 01:17:00,,0819.4,5.00,0.00,22.9,21.2,00.0,31.9,24.7,18.5,-001.1,0020.13,0015.48,0015.13
2023-01-02 01:18:00,,0819.4,5.01,0.00,22.9,21.3,00.0,31.9,24.6,18.6,-001.2,0020.30,0015.48,0015.12
2023-01-02 01:19:00,,0819.5,5.02,0.00,22.9,21.3,00.0,31.9,24.6,18.6,-001.1,0020.41,0015.43,0015.07
2023-01-02 01:20:00,,0819.5,5.02,0.00,22.9,21.3,00.0,31.9,24.7,18.6,-000.9,0020.34,0015.37,0015.01
2023-01-02 01:21:00,,0819.5,5.00,0.00,22.9,21.3,00.0,31.9,24.7,18.6,-000.9,0020.30,0015.33,0014.94
2023-01-02 01:22:00,,0819.5,4.99,0.00,22.9,21.3,00.0,31.9,24.7,18.6,-001.0,0020.05,0015.22,0014.84
2023-01-02 01:23:00,,0819.5,4.99,0.00,22.9,21.4,00.0,31.9,24.7,18.5,-001.1,0019.35,0015.06,0014.68
2023-01-02 01:24:00,,0819.5,5.00,0.00,22.9,21.4,00.0,31.8,24.7,18.5,-001.2,0018.89,0014.88,0014.52
2023-01-02 01:25:00,,0819.5,5.01,0.00,22.9,21.4,00.0,31.8,24.7,18.5,-001.2,0018.64,0014.70,0014.36
2023-01-02 01:26:00,,0819.5,5.00,0.00,22.9,21.4,00.0,31.8,24.7,18.4,-001.5,0018.54,0014.57,0014.20
2023-01-02 01:27:00,,0819.5,5.02,0.00,22.9,21.4,00.0,31.8,24.7,18.4,-001.5,0018.43,0014.48,0014.10
2023-01-02 01:28:00,,0819.6,5.00,0.00,22.9,21.5,00.0,31.8,24.7,18.4,-001.5,0018.38,0014.45,0014.07
2023-01-02 01:29:00,,0819.5,5.00,0.00,22.9,21.5,00.0,31.8,24.7,18.3,-001.6,0018.19,0014.36,0013.97
2023-01-02 01:30:00,,0819.6,5.00,0.00,22.9,21.5,00.0,31.8,24.7,18.3,-001.7,0017.92,0014.24,0013.86
2023-01-02 01:31:00,,0819.6,5.00,0.00,22.9,21.5,00.0,31.8,24.7,18.3,-001.8,0018.17,0014.13,0013.76
2023-01-02 01:32:00,,0819.7,5.00,0.00,22.9,21.5,00.0,31.8,24.6,18.3,-002.0,0018.03,0014.00,0013.64
2023-01-02 01:33:00,,0819.6,4.99,0.00,22.9,21.4,00.0,31.8,24.6,18.2,-002.0,0017.84,0013.83,0013.46
2023-01-02 01:34:00,,0819.7,5.01,0.00,22.8,21.4,00.0,31.8,24.6,18.2,-002.0,0017.86,0013.70,0013.31
2023-01-02 01:35:00,,0819.7,5.00,0.00,22.8,21.4,00.0,31.8,24.6,18.2,-002.0,0018.12,0013.56,0013.18
2023-01-02 01:36:00,,0819.8,4.99,0.00,22.8,21.4,00.0,31.7,24.6,18.1,-002.2,0018.05,0013.39,0012.99
2023-01-02 01:37:00,,0819.7,5.00,0.00,22.8,21.3,00.0,31.7,24.6,18.2,-002.1,0017.85,0013.25,0012.88
2023-01-02 01:38:00,,0819.7,5.00,0.00,22.8,21.4,00.0,31.7,24.6,18.2,-002.0,0017.67,0013.16,0012.79
2023-01-02 01:39:00,,0819.7,5.00,0.00,22.8,21.4,00.0,31.7,24.6,18.1,-001.9,0017.59,0013.05,0012.67
2023-01-02 01:40:00,,0819.7,5.00,0.00,22.8,21.4,00.0,31.7,24.6,18.1,-001.6,0017.75,0012.97,0012.58
2023-01-02 01:41:00,,0819.7,5.00,0.00,22.8,21.5,00.0,31.7,24.6,18.1,-001.6,0017.60,0012.85,0012.45
2023-01-02 01:42:00,,0819.7,5.00,0.00,22.8,21.5,00.0,31.7,24.6,18.1,-001.4,0017.12,0012.73,0012.32
2023-01-02 01:43:00,,0819.7,5.00,0.00,22.8,21.5,00.0,31.7,24.7,18.0,-001.3,0016.98,0012.62,0012.22
2023-01-02 01:44:00,,0819.7,5.00,0.00,22.8,21.5,00.0,31.7,24.7,18.0,-001.2,0016.89,0012.54,0012.16
2023-01-02 01:45:00,,0819.7,5.00,0.00,22.8,21.5,00.0,31.7,24.6,18.0,-001.3,0016.69,0012.49,0012.13
2023-01-02 01:46:00,,0819.7,5.00,0.00,22.8,21.5,00.0,31.7,24.6,18.0,-001.2,0016.29,0012.48,0012.12
2023-01-02 01:47:00,,0819.7,5.00,0.00,22.8,21.5,00.0,31.7,24.7,18.0,-000.9,0016.26,0012.48,0012.12
2023-01-02 01:48:00,,0819.6,5.01,0.00,22.8,21.6,00.0,31.7,24.7,18.0,-000.7,0016.81,0012.48,0012.11
2023-01-02 01:49:00,,0819.7,5.01,0.00,22.8,21.6,00.0,31.7,24.7,17.9,-001.0,0016.83,0012.46,0012.08
2023-01-02 01:50:00,,0819.7,5.01,0.00,22.9,21.6,00.0,31.7,24.7,17.9,-001.1,0016.78,0012.43,0012.06
2023-01-02 01:51:00,,0819.7,4.99,0.00,22.9,21.6,00.0,31.7,24.8,17.9,-001.0,0016.58,0012.48,0012.11
2023-01-02 01:52:00,,0819.6,5.00,0.00,22.9,21.6,00.0,31.7,24.8,17.9,-000.8,0016.72,0012.59,0012.20
2023-01-02 01:53:00,,0819.6,5.00,0.00,22.9,21.6,00.0,31.7,24.8,17.9,-001.1,0016.80,0012.68,0012.30
2023-01-02 01:54:00,,0819.7,5.00,0.00,22.9,21.7,00.0,31.7,24.8,17.9,-001.0,0016.85,0012.78,0012.40
2023-01-02 01:55:00,,0819.7,4.99,0.00,22.9,21.7,00.0,31.7,24.8,17.8,-000.9,0016.95,0012.91,0012.53
2023-01-02 01:56:00,,0819.7,5.00,0.00,22.9,21.7,00.0,31.7,24.8,17.8,-000.8,0017.06,0012.99,0012.61
2023-01-02 01:57:00,,0819.7,5.01,0.00,22.9,21.7,00.0,31.7,24.8,17.8,-000.9,0017.75,0013.07,0012.66
2023-01-02 01:58:00,,0819.7,5.00,0.00,22.9,21.7,00.0,31.8,24.8,17.8,-001.0,0017.75,0013.14,0012.74
2023-01-02 01:59:00,,0819.8,5.00,0.00,22.9,21.7,00.0,31.8,24.8,17.8,-001.3,0017.16,0013.10,0012.71
